Location: �perlecques
(50.8057°N, 2.1521°E)
Time: 17:29:14
(UTC+00:00)

CZ-4C R/B - Pass Details

Date: 09 April 2020
Orbit: 637 x 1365 km, 63.4° (Epoch: 28 May)

Event Time Altitude Azimuth Distance (km) Brightness Sun altitude
Rises 20:48:24 0° 314° (NW) 3,672 7.2 -19.0°
Reaches altitude 10° 20:50:51 10° 318° (NW) 2,824 6.1 -19.3°
Maximum altitude 20:57:35 59° 38° (NE) 1,325 3.1 -20.1°
Enters shadow 21:01:47 29° 107° (ESE) 2,113 3.7 -20.6°
